This is the latest recevied weather packets stored in our database for station/object AK4NG. If no packets are shown the sender has not sent any weather packets the latest 10 day(s).
| Time | Temp. | Humidity | Pressure | Rain* | Wind** | Luminosity | Snow |
|---|---|---|---|---|---|---|---|
| 1778173525 | 20.56° C | 96% | 1015.1 hPa | 0 mm | - | 160 W/m² | - |
| 1778173222 | 20° C | 96% | 1014.9 hPa | 0 mm | - | 181 W/m² | - |
| 1778172918 | 20.56° C | 97% | 1014.7 hPa | 0 mm | - | 200 W/m² | - |
| 1778172614 | 20° C | 97% | 1014.5 hPa | 0 mm | - | 231 W/m² | - |
| 1778172311 | 20° C | 97% | 1014.8 hPa | 0 mm | - | 196 W/m² | - |
| 1778172008 | 20° C | 98% | 1014.7 hPa | 0 mm | - | 195 W/m² | - |
| 1778171705 | 20° C | 98% | 1015 hPa | 0 mm | - | 267 W/m² | - |
| 1778171402 | 20° C | 97% | 1014.9 hPa | 0 mm | - | 207 W/m² | - |
| 1778171097 | 20° C | 97% | 1015.1 hPa | 0 mm | - | 139 W/m² | - |
| 1778170794 | 20° C | 97% | 1015.2 hPa | 0 mm | - | 148 W/m² | - |
| 1778170490 | 20° C | 97% | 1015 hPa | 0 mm | - | 134 W/m² | - |
| 1778170188 | 20.56° C | 97% | 1015.1 hPa | 0 mm | - | 99 W/m² | - |
| 1778169883 | 20.56° C | 97% | 1015 hPa | 0 mm | - | 80 W/m² | - |
| 1778169579 | 20.56° C | 97% | 1015 hPa | 0 mm | - | 186 W/m² | - |
| 1778169276 | 20.56° C | 97% | 1015.1 hPa | 0 mm | - | 93 W/m² | - |
| 1778168973 | 20.56° C | 97% | 1015 hPa | 0 mm | - | 79 W/m² | - |
| 1778168669 | 20.56° C | 97% | 1014.7 hPa | 0 mm | - | 95 W/m² | - |
| 1778168367 | 20.56° C | 97% | 1014.8 hPa | 0 mm | - | 171 W/m² | - |
| 1778168063 | 20.56° C | 97% | 1014.4 hPa | 0 mm | - | 100 W/m² | - |
| 1778167759 | 21.11° C | 97% | 1014.5 hPa | 0 mm | - | 50 W/m² | - |
| 1778167456 | 21.11° C | 98% | 1014.5 hPa | 0 mm | - | 40 W/m² | - |
| 1778167152 | 21.11° C | 98% | 1014.4 hPa | 0 mm | - | 46 W/m² | - |
| 1778166849 | 21.11° C | 98% | 1014.2 hPa | 0 mm | - | 47 W/m² | - |
| 1778166546 | 21.11° C | 98% | 1014.3 hPa | 0 mm | - | 36 W/m² | - |
| 1778166242 | 21.11° C | 97% | 1014.2 hPa | 0 mm | - | 63 W/m² | - |
* Rain latest hour (hover to see other rain measurements)
** Current wind speed in m/s (hover to see current wind gust speed)